Copper Harbor, MI

1:33 AM EST on February 12, 2016 (GMT -0500)
Copper Harbor

Weather History for KP59 - October, 2013

Change the Weather History Date:

Monday, October 7, 2013

  Actual Average Record
Temperature  
Mean Temperature 47 °F -  
Max Temperature 51 °F 53 °F 82 °F (2007)
Min Temperature 44 °F 39 °F 28 °F (1996)
Degree Days  
Heating Degree Days 18    
Moisture  
Dew Point 42 °F    
Average Humidity 83    
Maximum Humidity 93    
Minimum Humidity 66    
Precipitation  
Precipitation 0.00 in - - ()
Sea Level Pressure  
Sea Level Pressure 29.78 in    
Wind  
Wind Speed 12 mph (NNW)    
Max Wind Speed 18 mph    
Max Gust Speed 25 mph    
Averages and records for this station are not official NWS values.
T = Trace of Precipitation, MM = Missing Value Source: NWS Daily Summary

Daily Weather History Graph

Daily Weather History Graph

Search for Another Location

Airport or City:

Trip Planner

Search our weather history database for the weather conditions in past years. The results will help you decide how hot, cold, wet, or windy it might be!

Date:

Astronomy

Oct. 07, 2013 Rise Set
Actual Time 7:59 AM EDT 7:18 PM EDT
Civil Twilight 7:28 AM EDT 7:49 PM EDT
Nautical Twilight 6:52 AM EDT 8:24 PM EDT
Astronomical Twilight 6:17 AM EDT 9:00 PM EDT
Moon 11:01 AM EDT (10/7) 8:49 PM EDT (10/7)
Length of Visible Light 12h 20m
Length of Day
11h 19m
Waxing Crescent, 8% of the Moon is Illuminated
Oct 7
Waxing Crescent
Oct 11
First Quarter
Oct 18
Full
Oct 26
Last Quarter
Nov 3
New

Hourly Weather History & Observations

Time (EDT) Temp. Windchill Dew Point Humidity Pressure Visibility Wind Dir Wind Speed Gust Speed Precip Events Conditions
12:51 AM 46.0 °F 39.9 °F 42.1 °F 86% 29.66 in - North 13.8 mph - N/A   Unknown
1:51 AM 46.0 °F 39.9 °F 41.0 °F 83% 29.67 in - North 13.8 mph - N/A   Unknown
2:51 AM 44.1 °F 38.1 °F 41.0 °F 89% 29.66 in - North 11.5 mph - N/A   Unknown
3:51 AM 45.0 °F 38.9 °F 42.1 °F 90% 29.66 in - North 12.7 mph - N/A   Unknown
4:51 AM 44.1 °F 40.1 °F 41.0 °F 89% 29.66 in - North 6.9 mph - N/A   Unknown
5:51 AM 44.1 °F 40.8 °F 42.1 °F 93% 29.65 in - North 5.8 mph - N/A   Unknown
6:51 AM 46.9 °F - 43.0 °F 86% 29.65 in - NNW 9.2 mph 17.3 mph N/A   Unknown
7:51 AM 48.0 °F - 44.1 °F 86% 29.65 in - NNW 13.8 mph 18.4 mph N/A   Unknown
8:51 AM 48.0 °F - 44.1 °F 86% 29.68 in - North 18.4 mph 24.2 mph N/A   Unknown
9:51 AM 46.0 °F 39.0 °F 43.0 °F 89% 29.71 in - North 17.3 mph - N/A   Unknown
10:51 AM 46.9 °F - 43.0 °F 86% 29.74 in - North 17.3 mph - N/A   Unknown
11:51 AM 48.0 °F - 39.9 °F 74% 29.76 in - North 17.3 mph 25.3 mph N/A   Unknown
12:51 PM 46.0 °F 39.9 °F 41.0 °F 83% 29.79 in - North 13.8 mph - N/A   Unknown
1:51 PM 46.0 °F 40.6 °F 39.9 °F 79% 29.81 in - North 11.5 mph - N/A   Unknown
2:51 PM 46.9 °F - 41.0 °F 80% 29.82 in - North 15.0 mph - N/A   Unknown
3:51 PM 48.9 °F - 41.0 °F 74% 29.84 in - North 15.0 mph - N/A   Unknown
4:51 PM 48.9 °F - 39.9 °F 71% 29.86 in - NNW 11.5 mph - N/A   Unknown
5:51 PM 50.0 °F - 39.0 °F 66% 29.88 in - North 10.4 mph - N/A   Unknown
6:51 PM 48.9 °F - 39.9 °F 71% 29.90 in - WNW 4.6 mph - N/A   Unknown
7:51 PM 46.0 °F 43.1 °F 42.1 °F 86% 29.91 in - WSW 5.8 mph - N/A   Unknown
8:51 PM 46.9 °F - 42.1 °F 83% 29.93 in - West 4.6 mph - N/A   Unknown
9:51 PM 46.9 °F - 43.0 °F 86% 29.96 in - West 6.9 mph - N/A   Unknown
10:51 PM 46.0 °F 43.9 °F 43.0 °F 89% 29.97 in - West 4.6 mph - N/A   Unknown
11:51 PM 45.0 °F 41.8 °F 42.1 °F 90% 29.99 in - WSW 5.8 mph - N/A   Unknown